www.pogodaiklimat.ru

Погода и климат >> Архив погоды >> Россия >> Ставропольский край >> Георгиевск


ПОГОДА в Георгиевске

  • Прогноз погоды в Георгиевске
  • Монитор погоды в Георгиевске

АРХИВ ПОГОДЫ в Георгиевске

Время (UTC), дата Ветер
(напр.,м/с)
 
Видим.   Явления Облачность Т
(С)
Тd
(С)
f
(%)
Тe
(С)
Тes
(С)
Комфортность P
(гПа)
Po
(гПа)
Тmin
(С)
Tmax
(С)
R
(мм)
R24
(мм)
S
(см)
03 14.09 штиль 0 4000 м дымка ясно +8.9 +7.6 92 +8 +8 1022.3 986.7 +8.9
06 14.09 В 2 20 км ясно +18.7 +11.4 63 +20 +26 1021.4 987.0 +8.8
09 14.09 В 2 20 км ясно +24.1 +8.1 36 +25 +37 комфорт 1018.9 985.2
12 14.09 В 2 20 км ясно +26.3 +5.9 27 +26 +32 жарко 1017.2 983.8
15 14.09 штиль 0 20 км ясно +22.9 +6.5 35 +24 +24 комфорт 1016.9 983.1 +26.3
18 14.09 штиль 0 20 км ясно +15.4 +9.7 69 +15 +15 1018.3 983.6
21 14.09 штиль 0 20 км 4/0
[Ac trans]
+13.9 +9.1 73 +14 +14 1018.7 983.8
00 15.09 штиль 0 20 км 3/0
[Ac trans]
+12.0 +9.0 82 +11 +11 1018.5 983.4
03 15.09 З 1 20 км ясно +12.0 +7.4 73 +12 +12 1018.7 983.6 +11.5
06 15.09 ЮЗ 1 20 км ясно +22.4 +8.1 40 +24 +30 комфорт 1018.1 984.2
09 15.09 СЗ 2 20 км 6/0
[Ci]
+27.7 +5.7 25 +27 +37 жарко 1016.5 983.2
12 15.09 СЗ 1 20 км 10/6 1000 м
[Cu hum Ac trans Ci]
+28.5 +3.9 21 +27 +28 жарко 1015.9 982.7
15 15.09 штиль 0 20 км 10/0
[Cc]
+24.7 +3.2 25 +24 +24 комфорт 1017.1 983.5 +28.8
18 15.09 З 1 20 км 4/0
[Ac trans]
+17.7 +4.8 42 +19 +19 1019.7 985.2
21 15.09 З 1 20 км ясно +14.3 +4.9 53 +15 +15 1020.4 985.5
00 16.09 З 1 20 км ясно +12.3 +5.1 61 +13 +13 1021.0 985.8
03 16.09 штиль 0 20 км ясно +9.9 +6.2 78 +9 +9 1020.8 985.3 +9.9
06 16.09 В 1 20 км ясно +19.1 +7.2 46 +21 +27 комфорт 1018.4 984.1
09 16.09 В 2 20 км 3/0
[Ac trans]
+25.3 +6.4 30 +25 +35 комфорт 1015.0 981.5
12 16.09 В 2 20 км 8/0
[Ac trans Ci]
+27.1 +5.0 24 +26 +31 жарко 1012.6 979.4
15 16.09 ЮВ 1 20 км 10/0
[Ac trans Ci]
+23.7 +5.9 32 +24 +24 комфорт 1012.1 978.5 +27.6
18 16.09 штиль 0 20 км 3/0
[Ac trans]
+16.8 +8.5 58 +17 +17 1013.2 978.8
21 16.09 штиль 0 20 км 5/0
[Ac trans]
+16.9 +9.4 61 +17 +17 1012.5 978.2
00 17.09 З 1 20 км 10/0
[Ac und]
+18.0 +7.7 51 +19 +19 1012.4 978.2
03 17.09 З 1 20 км в посл. час ливневой дождь 10/10 600 м
[Cb cap]
+16.9 +11.4 70 +18 +18 1012.6 978.3 +15.9 0.3
06 17.09 СЗ 1 20 км {ливн. осадки} 10/8 1000 м
[Cb cap Ac trans]
+19.2 +10.4 57 +21 +22 комфорт 1012.9 978.9
09 17.09 СЗ 1 20 км 10/10 600 м
[Cb cap]
+22.2 +11.3 50 +24 +24 комфорт 1011.8 978.2
12 17.09 штиль 0 20 км в посл. час ливневой дождь 10/10 1000 м
[Cb cap]
+19.1 +14.5 75 +20 +20 1011.4 977.4
15 17.09 В 1 20 км 10/8 600 м
[Cb cap Ac trans]
+18.7 +14.7 78 +21 +21 комфорт 1011.2 977.3 +22.4 0.5
18 17.09 ЮЗ 1 20 км 3/0
[Ac trans]
+16.6 +13.9 84 +17 +17 1012.1 977.8
21 17.09 З 1 20 км 4/0
[Ac trans]
+15.4 +12.9 85 +16 +16 1012.7 978.3
00 18.09 З 1 20 км ясно +15.2 +8.2 63 +16 +16 1013.2 978.7
03 18.09 З 1 20 км ясно +11.5 +7.7 77 +11 +11 1014.5 979.5 +11.2
06 18.09 Ю 1 20 км ясно +22.3 +10.9 48 +24 +31 комфорт 1014.0 980.3
09 18.09 ЮВ 2 20 км ясно +27.3 +4.4 23 +26 +37 жарко 1012.2 979.1
12 18.09 В 2 20 км 3/0
[Ac trans]
+28.8 +4.6 21 +27 +32 жарко 1010.9 978.0
15 18.09 ЮВ 1 20 км ясно +25.1 +5.2 28 +25 +25 комфорт 1010.7 977.3 +29.1
18 18.09 Ю 1 20 км ясно +21.1 +5.7 37 +22 +22 комфорт 1011.2 977.4
21 18.09 З 1 20 км ясно +15.6 +8.4 62 +16 +16 1012.8 978.3
00 19.09 СЗ 1 20 км ясно +16.5 +8.7 60 +17 +17 1016.1 981.6
03 19.09 СЗ 1 20 км ясно +13.6 +8.6 72 +14 +14 1018.0 983.1 +13.6
06 19.09 штиль 0 20 км 8/8 1000 м
[Sc]
+18.9 +10.0 56 +19 +21 1019.4 985.1 +13.1
09 19.09 штиль 0 20 км 10/8 600 м
[Sc Ac und]
+19.4 +9.7 53 +20 +21 1019.2 985.0
12 19.09 В 1 20 км 5/5 1000 м
[Sc]
+21.1 +9.5 47 +22 +26 комфорт 1018.9 984.8
15 19.09 штиль 0 20 км 8/8 600 м
[Sc]
+20.0 +9.5 51 +21 +21 комфорт 1019.1 984.9 +21.7
18 19.09 штиль 0 20 км 8/8 1000 м
[Sc]
+17.6 +6.3 47 +18 +18 1019.7 985.2
21 19.09 штиль 0 20 км 8/0
[Ac trans]
+12.0 +4.1 58 +12 +12 1019.4 984.2
00 20.09 З 1 20 км 3/0
[Ac trans]
+10.1 +3.6 64 +10 +10 1019.4 984.0
03 20.09 З 1 20 км ясно +8.5 +2.0 64 +8 +8 1019.0 983.4 +8.5
06 20.09 В 1 20 км ясно +16.1 +2.9 41 +17 +23 1017.0 982.4 +8.5
09 20.09 В 2 20 км 3/3 600 м
[Cu hum]
+22.2 +6.5 36 +23 +31 комфорт 1013.6 979.8
12 20.09 В 2 20 км 8/4 1000 м
[Cu Sc Ac trans Ci]
+23.5 +7.3 35 +24 +26 комфорт 1010.3 976.8
15 20.09 ЮВ 1 20 км 10/8 1000 м
[Sc Ac trans]
+20.6 +10.4 52 +23 +23 комфорт 1009.5 975.7 +23.8
18 20.09 СВ 1 20 км 10/10 1000 м
[Sc]
+18.5 +8.4 52 +20 +20 1009.8 975.8
21 20.09 З 4 10 км слаб. ливневой дождь 10/10 600 м
[Cb cap]
+13.2 +8.4 73 +12 +12 1011.5 976.8
00 21.09 СЗ 2
{11}
20 км в посл. час ливневой дождь 10/10 1000 м
[Cb cap]
+10.3 +8.7 90 +9 +9 1013.8 978.6

 

Местоположение метеостанции Георгиевск (Ставропольский край, Россия): широта 44.13 долгота 43.45 высота над уровнем моря 288 м.

В архиве по умолчанию представлена погода в Георгиевске за последнюю неделю. Архивные данные за месяц целиком и за предыдущие месяцы, начиная с января 2011 года, Вы можете получить, выбрав интересующий диапазон дат из раскрывающегося списка и нажав кнопку "Ввод!".


*Определитесь, кто Вы:
робот инопланетянин человек

Внимание! Время в таблицах - всемирное. Для получения местного времени необходимо прибавить поправку, которая равна 3 ч.

Смотрите также архив погоды в соседних городах и на ближайших метеорологических станциях:

Погода в Минеральных Водах (Ставропольский край, Россия) (30 км)
Погода в Зеленокумске (Ставропольский край, Россия) (48 км)
Погода в Кисловодске (Ставропольский край, Россия) (64 км)
Погода в Прохладный (Кабардино-Балкария, Россия) (64 км)
Погода в Нальчике (Кабардино-Балкария, Россия) (68 км)
Погода в Александровском (Ставропольский край, Россия) (75 км)
Погода в Шаджатмазе (Карачаево-Черкессия, Россия) (77 км)
Погода в Буденновске (Ставропольский край, Россия) (90 км)
Погода в Тырныаузе (Кабардино-Балкария, Россия) (94 км)
Погода в Моздоке (Северная Осетия, Россия) (107 км)

Пояснения к столбцам:

Ветер - указаны скорость ветра в м/с - средняя за 10 мин, порывы в срок и между сроками (в фигурных скобках) и направление, откуда дует ветер: С - северный, СВ - северо-восточный, В - восточный, ЮВ - юго-восточный, Ю - южный, ЮЗ - юго-западный, З - западный, СЗ - северо-западный.
Видимость - горизонтальная дальность видимости в метрах или километрах. При видимости от 1 до 10 км при отсутствии осадков обычно наблюдается дымка, при ухудшении видимости до 1 км и менее - туман. В сухую погоду видимость может ухудшаться дымом, пылью или мглою.
Явления - указаны атмосферные явления, наблюдавшиеся в срок или в последний час перед сроком; фигурными скобками обозначены явления, наблюдавшиеся между сроками (за 1-3 часа до срока); квадратными скобками обозначены град или гололедные отложения с указанием их диаметра в мм.
Облачность - указаны через наклонную черту общая и нижняя облачность в баллах и высота нижней границы облаков в метрах; квадратными скобками обозначены формы облаков: Ci - перистые, Cs - перисто-слоистые, Cc - перисто-кучевые, Ac - высококучевые, As - высокослоистые, Sc - слоисто-кучевые, Ns - слоисто-дождевые, Cu - кучевые, Cb - кучево-дождевые. Подробнее классификацию облаков см. в Атласе облаков (PDF).
T - Температура воздуха - температура, измеренная на высоте 2 м над землей.
Td - Температура точки росы - температура, при понижении до которой содержащийся в воздухе водяной пар достигнет насыщения.
f - Относительная влажность воздуха - влажноcть воздуха, измеренная на высоте 2 м над землей.
Te - Эффективная температура - температура, которую ощущает одетый по сезону человек в тени. Характеристика душности погоды. При расчете учитывается влияние влажности воздуха и скорости ветра на теплоощущения человека.
Tes - Эффективная температура на солнце - температура, которую ощущает человек, с поправкой на солнечный нагрев. Характеристика знойности погоды. Зависит от высоты солнца над горизонтом, облачности и скорости ветра. Ночью, в пасмурную погоду, а также при ветре 12 м/с и более поправка равна нулю.
P - Атмосферное давление - приведенное к уровню моря атмосферное давление.
Po - Атмосферное давление - измеренное на уровне метеостанции атмосферное давление.
Tmin - Минимальная температура - минимум температуры воздуха на высоте 2 м над землей.
Tmax - Максимальная температура - максимум температуры воздуха на высоте 2 м над землей.
R - Количество осадков - Количество выпавших осадков за период времени, мм. При наведении курсора мыши на число - период времени, за который выпало указанное количество осадков.
R24 - Количество осадков - Количество выпавших осадков за 24 часа, мм.
S - Снежный покров - Высота снежного покрова, см. При наведении курсора мыши на число - состояние снежного покрова и степень покрытия местности в баллах.